KB9VKQ-13 Weather Reports


time (UTC)temp
F
wind
direction
speed
knots
gust
knots
rain 1hr
in
rain 24hr
in
rain mn
in
humidity
%
barometer
mb
20260505121339 53 46 4.3 7.0 0.02 0.32 0.23
20260505120309 53 55 3.5 7.8 0.02 0.32 0.23
20260505115309 53 32 3.5 11.3 0.02 0.32 0.23
20260505114240 54 352 5.2 13.9 0.00 0.32 0.21
20260505113239 55 346 7.8 15.6 0.00 0.32 0.21
20260505112209 57 353 7.0 13.0 0.00 0.32 0.21
20260505111209 58 356 4.3 8.7 0.00 0.32 0.21
20260505110139 58 343 2.6 6.1 0.00 0.32 0.21
20260505102039 58 347 0.0 2.6 0.05 0.32 0.21
20260505101039 58 333 0.0 3.5 0.05 0.32 0.21
20260505100104 58 357 1.7 5.2 0.05 0.32 0.21
20260505100009 58 357 1.7 5.2 0.05 0.32 0.21
20260505094939 59 77 2.6 3.5 0.03 0.32 0.19
20260505093939 59 232 0.0 0.0 0.00 0.32 0.16
20260505092909 59 232 0.0 4.3 0.00 0.32 0.16
20260505091839 59 190 1.7 3.5 0.00 0.32 0.16
20260505090839 59 132 0.9 6.1 0.00 0.32 0.16
20260505085809 58 222 4.3 6.1 0.01 0.32 0.16
20260505084809 59 211 1.7 2.6 0.01 0.32 0.16
20260505083739 59 169 1.7 3.5 0.16 0.32 0.16
20260505082709 60 236 1.7 4.3 0.11 0.32 0.16
20260505081639 60 229 1.7 4.3 0.16 0.32 0.16
20260505080639 60 231 3.5 4.3 0.16 0.32 0.16
20260505075839 60 285 4.3 8.7 0.15 0.32 0.15
20260505075609 60 285 4.3 8.7 0.15 0.32 0.15
20260505074609 61 302 6.1 20.0 0.15 0.32 0.15
20260505073539 62 278 8.7 13.9 0.10 0.32 0.10
20260505072509 64 322 5.2 8.7 0.03 0.32 0.03
20260505071653 65 354 2.6 9.6 0.00 0.32 0.00
20260505071509 65 354 2.6 9.6 0.00 0.32 0.00
20260505070439 66 14 5.2 8.7 0.00 0.32 0.00
20260505065439 66 311 2.6 8.7 0.00 0.32 0.00
20260505064409 67 37 4.3 7.8 0.00 0.32 0.00
20260505063409 67 311 5.2 13.0 0.00 0.32 0.00
20260505062409 67 264 7.0 13.0 0.00 0.32 0.00
20260505061409 67 238 7.8 14.8 0.00 0.32 0.00
20260505060409 67 232 9.6 14.8 0.00 0.32 0.00
20260505055409 67 238 7.8 16.5 0.00 0.32 0.00
20260505054339 67 248 7.8 14.8 0.00 0.32 0.00
20260505053339 67 229 7.8 14.8 0.00 0.32 0.00
20260505052309 67 270 11.3 17.4 0.00 0.32 0.00
20260505051239 67 231 7.8 13.9 0.00 0.32 0.00
20260505050209 67 255 7.8 15.6 0.00 0.32 0.00
20260505041109 68 229 7.8 20.0 0.00 0.07 0.32
20260505040039 68 236 7.8 18.2 0.00 0.07 0.32
20260505035009 68 240 8.7 14.8 0.00 0.07 0.32
20260505034009 69 284 8.7 16.5 0.00 0.07 0.32
20260505032939 69 235 11.3 17.4 0.00 0.07 0.32
20260505031909 69 252 11.3 16.5 0.00 0.07 0.32
20260505030909 69 233 11.3 18.2 0.00 0.07 0.32
20260505025839 69 248 7.8 17.4 0.00 0.07 0.32
20260505024839 69 259 8.7 16.5 0.00 0.07 0.32
20260505023809 69 250 7.8 15.6 0.00 0.07 0.32
20260505022739 68 236 7.8 14.8 0.01 0.07 0.32
20260505021739 68 246 5.2 11.3 0.01 0.07 0.32
20260505020709 68 250 7.0 12.2 0.01 0.07 0.32
20260505015709 68 177 5.2 13.0 0.01 0.07 0.32
20260505014709 68 135 6.1 11.3 0.01 0.07 0.32
20260505013639 68 242 8.7 15.6 0.01 0.07 0.32
20260505012639 70 235 7.8 13.9 0.00 0.07 0.31
20260505011609 69 245 8.7 17.4 0.00 0.07 0.31
20260505010609 69 181 11.3 24.3 0.00 0.07 0.31
20260505005539 71 219 9.6 15.6 0.00 0.07 0.31
20260505004509 71 233 7.0 14.8 0.00 0.07 0.31
20260505003509 72 259 6.1 16.5 0.00 0.07 0.31
20260505002509 73 163 7.8 20.9 0.00 0.07 0.31
20260505001509 73 253 10.4 21.7 0.00 0.07 0.31
20260505000509 73 240 9.6 18.2 0.00 0.07 0.31
20260504235438 73 218 11.3 18.2 0.00 0.07 0.31
20260504234439 74 260 10.4 22.6 0.00 0.07 0.31
20260504233409 74 221 9.6 19.1 0.00 0.07 0.31
20260504232408 75 214 13.0 21.7 0.00 0.07 0.31
20260504231408 78 232 13.9 20.0 0.00 0.07 0.31
20260504230338 79 235 10.4 17.4 0.00 0.07 0.31
20260504225338 78 242 10.4 21.7 0.00 0.07 0.31
20260504224338 78 195 12.2 18.2 0.00 0.07 0.31
20260504223308 78 226 11.3 17.4 0.00 0.07 0.31
20260504222238 78 193 7.0 14.8 0.00 0.07 0.31
20260504221208 78 238 9.6 17.4 0.00 0.07 0.31
20260504220208 76 240 9.6 16.5 0.00 0.07 0.31
20260504215138 75 215 9.6 17.4 0.00 0.07 0.31
20260504214138 76 228 11.3 20.0 0.00 0.07 0.31
20260504213138 75 217 10.4 21.7 0.00 0.07 0.31
20260504212108 75 224 11.3 19.1 0.00 0.07 0.31
20260504211109 75 232 10.4 21.7 0.00 0.07 0.31
20260504210108 74 256 8.7 15.6 0.00 0.07 0.31
20260504205038 75 240 7.0 14.8 0.00 0.07 0.31
20260504204008 73 229 5.2 14.8 0.00 0.07 0.31
20260504203008 72 222 7.8 14.8 0.00 0.07 0.31
20260504201938 72 229 7.8 13.9 0.00 0.07 0.31
20260504200938 72 219 9.6 16.5 0.00 0.07 0.31
20260504195908 73 224 8.7 14.8 0.00 0.07 0.31
20260504194838 71 249 7.8 13.9 0.00 0.07 0.31
20260504193838 69 233 9.6 17.4 0.00 0.07 0.31
20260504192817 69 232 9.6 0.0 0.00 0.07 0.31
20260504192808 69 232 9.6 16.5 0.00 0.07 0.31
20260504191808 68 236 8.7 18.2 0.01 0.07 0.31
20260504190738 67 221 11.3 20.0 0.01 0.07 0.31
20260504185708 67 201 9.6 19.1 0.01 0.07 0.31
20260504184708 68 245 9.6 19.1 0.01 0.07 0.31
20260504183638 68 280 11.3 24.3 0.01 0.07 0.31
20260504182638 68 271 8.7 13.0 0.01 0.07 0.31
20260504181638 69 252 5.2 13.9 0.00 0.07 0.30
20260504180638 70 236 6.1 13.9 0.00 0.07 0.30
20260504175638 71 212 7.8 15.6 0.00 0.07 0.30
20260504174608 71 214 8.7 18.2 0.00 0.07 0.30
20260504173608 71 232 7.0 18.2 0.00 0.07 0.30
20260504172538 73 266 7.8 15.6 0.00 0.07 0.30
20260504171538 71 217 6.1 15.6 0.00 0.07 0.30
20260504170508 71 229 6.1 18.2 0.00 0.07 0.30
20260504160238 72 228 8.7 14.8 0.00 0.07 0.30
20260504151038 71 231 6.1 14.8 0.00 0.07 0.30
20260504140908 65 270 6.1 9.6 0.00 0.07 0.30
20260504130738 60 246 6.1 13.9 0.00 0.07 0.30